Content
SEND FEEDBACK

Daily
Averages
Monthly
Summary
Romania

TIMISOARA, ROMANIA


Home > Europe > Romania
Elevation: 335 feet     Latitude: 45 45N     Longitude: 021 14E

WEATHER
 
SELECT A DAY
Number of Records: 282,226;   Date Range: 7/1/96 - 10/22/14
 
SHARE

PRINT THIS DATA

[ ← Previous Day ]
WEATHER ALMANAC - AUGUST 27, 2014
[ Next Day → ]
[ °C ]   °F
Weather ElementAverageHighLow
Temperature67.4 °F71.6 °F (12:30 am)62.6 °F (2:00 am)
Dewpoint65.4 °F69.8 °F (12:30 am)60.8 °F (5:00 pm)
Humidity93 %100 % (4:30 am)71 % (9:00 pm)
Barometer29.84 in29.92 in (10:00 pm)29.80 in (12:00 am)
Wind Speed4.6 mph10.4 mph (3:30 pm)
Weather ElementAverage
Visibility5.6 mi
Wind DirectionS (183 °)

Weather ElementTotal
Precipitation---
Cooling Degree Days2.1 (Base 65)
Growing Degree Days17.1 (Base 50)
Averaged from 56 records on August 27, 2014
WEATHER CONDITIONS BREAKOUT
WIND DIRECTION BREAKOUT
WEATHER BY HOUR - AUGUST 27, 2014
[ °C ]   °F
Local TimeTemperatureDewpointHumidityBarometerVisibilityWind DirectionWind SpeedGust SpeedPrecipitationEventsConditions
12:00 AM67.0 °F62.0 °F77 %29.83 in6.0 miESE (120°)2.2 mphMostly Cloudy
12:00 AM69.8 °F62.6 °F78 %29.83 inVariable1.2 mphClear
12:30 AM66.2 °F64.4 °F94 %29.83 inVariable1.2 mphClear
1:00 AM68.0 °F64.4 °F88 %29.83 inSSE (150°)1.2 mphClear
1:30 AM68.0 °F64.4 °F88 %29.83 inESE (120°)3.5 mphClear
2:00 AM66.2 °F64.4 °F94 %29.83 inEast (90°)2.3 mphClear
2:30 AM66.2 °F64.4 °F94 %29.83 inVariable1.2 mphClear
3:00 AM66.2 °F64.4 °F94 %29.83 inSE (130°)3.5 mphClear
3:00 AM69.0 °F62.0 °F71 %29.83 in6.0 miWSW (240°)2.2 mphOvercast
3:30 AM66.2 °F66.2 °F100 %29.83 inSE (130°)5.8 mphClear
4:00 AM66.2 °F66.2 °F100 %29.83 inVariable2.3 mphClear
4:30 AM66.2 °F66.2 °F100 %29.83 in3.1 miWNW (290°)4.6 mphRainRain
5:00 AM66.2 °F64.4 °F94 %29.80 in5.0 miNNW (330°)4.6 mphRainLight Rain
5:30 AM66.2 °F64.4 °F94 %29.83 in6.2 miWNW (290°)5.8 mphPartly Cloudy
6:00 AM66.2 °F64.4 °F94 %29.80 in6.2 miNW (310°)4.6 mphRainLight Rain Showers
6:00 AM66.0 °F65.0 °F94 %29.82 in6.0 miWest (270°)2.2 mphRainLight Rain
6:30 AM66.2 °F64.4 °F94 %29.80 inVariable1.2 mphClear
7:00 AM66.2 °F64.4 °F94 %29.80 in6.2 miVariable1.2 mphRainLight Rain
7:30 AM66.2 °F64.4 °F94 %29.80 in6.2 miESE (120°)3.5 mphPartly Cloudy
8:00 AM66.2 °F64.4 °F94 %29.80 in3.1 miESE (110°)4.6 mphPartly Cloudy
8:30 AM66.2 °F64.4 °F94 %29.80 in5.0 miESE (120°)4.6 mphPartly Cloudy
9:00 AM66.2 °F64.4 °F94 %29.80 in6.2 miESE (110°)4.6 mphPartly Cloudy
9:00 AM66.0 °F64.0 °F93 %29.81 in6.0 miESE (110°)2.2 mphPartly Cloudy
9:30 AM66.2 °F64.4 °F94 %29.83 in2.5 miVariable1.2 mphRainLight Rain
10:00 AM66.2 °F64.4 °F94 %29.83 in1.9 miVariable1.2 mphRainRain
10:30 AM66.2 °F64.4 °F94 %29.83 in3.7 miSSE (150°)3.5 mphRainLight Rain
11:00 AM66.2 °F64.4 °F94 %29.83 in3.1 miSSE (150°)4.6 mphRainLight Rain
11:30 AM66.2 °F66.2 °F100 %29.83 in3.1 miSSE (160°)5.8 mphRainLight Rain
12:00 PM66.2 °F66.2 °F100 %29.83 in5.0 miSouth (180°)4.6 mphRainLight Rain
12:00 PM67.0 °F66.0 °F96 %29.83 in6.0 miSSE (160°)4.5 mphRainLight Rain
12:30 PM68.0 °F66.2 °F94 %29.83 in6.2 miSouth (180°)5.8 mphPartly Cloudy
1:00 PM69.8 °F68.0 °F94 %29.83 in6.2 miSSW (210°)5.8 mphPartly Cloudy
1:30 PM69.8 °F68.0 °F94 %29.83 in6.2 miWest (270°)9.2 mphMostly Cloudy
2:00 PM69.8 °F68.0 °F94 %29.83 in6.2 miWest (280°)9.2 mphRainLight Rain
2:30 PM68.0 °F68.0 °F100 %29.83 in6.2 miWSW (250°)8.1 mphRainLight Rain
3:00 PM69.8 °F68.0 °F94 %29.83 in6.2 miWest (270°)6.9 mphPartly Cloudy
3:00 PM68.0 °F66.0 °F93 %29.84 in6.0 miWest (270°)4.5 mphRainLight Rain
3:30 PM69.8 °F68.0 °F94 %29.86 in6.2 miWest (270°)8.1 mphPartly Cloudy
4:00 PM68.0 °F68.0 °F100 %29.83 in6.2 miWest (280°)4.6 mphScattered Clouds
4:30 PM71.6 °F69.8 °F94 %29.83 in6.2 miSSW (210°)4.6 mphPartly Cloudy
5:00 PM71.6 °F68.0 °F88 %29.83 in6.2 miSSW (210°)4.6 mphPartly Cloudy
5:30 PM71.6 °F69.8 °F94 %29.86 in6.2 miSW (220°)4.6 mphPartly Cloudy
6:00 PM69.8 °F68.0 °F94 %29.83 in6.2 miSSW (210°)4.6 mphPartly Cloudy
6:00 PM70.0 °F64.0 °F76 %29.84 in6.0 miSW (220°)4.5 mphPartly Cloudy
6:30 PM69.8 °F68.0 °F94 %29.83 in6.2 miSW (220°)4.6 mphPartly Cloudy
7:00 PM69.8 °F68.0 °F94 %29.86 in6.2 miSW (230°)3.5 mphPartly Cloudy
7:30 PM68.0 °F66.2 °F94 %29.86 in6.2 miWSW (250°)4.6 mphPartly Cloudy
8:00 PM68.0 °F66.2 °F94 %29.86 in6.2 miWSW (240°)4.6 mphPartly Cloudy
8:30 PM68.0 °F66.2 °F94 %29.86 in6.2 miWSW (250°)3.5 mphPartly Cloudy
9:00 PM66.2 °F64.4 °F94 %29.89 in6.2 miWest (270°)5.8 mphPartly Cloudy
9:00 PM68.0 °F64.0 °F83 %29.86 in6.0 miWest (260°)4.5 mphPartly Cloudy
9:30 PM66.2 °F64.4 °F94 %29.89 in6.2 miWSW (250°)6.9 mphScattered Clouds
10:00 PM64.4 °F64.4 °F100 %29.89 in6.2 miWest (260°)9.2 mphPartly Cloudy
10:30 PM64.4 °F62.6 °F94 %29.89 in6.2 miWest (270°)8.1 mphPartly Cloudy
11:00 PM64.4 °F62.6 °F94 %29.92 in6.2 miWest (280°)9.2 mphPartly Cloudy
11:30 PM62.6 °F60.8 °F94 %29.92 in6.2 miWest (280°)10.4 mphPartly Cloudy
Hourly data recorded from LRTR, located miles away from Timisoara, Romania







STORIES FROM OUR PARTNERS